Weather History for KBTM - October, 2010

Change the Weather History Date:

Thursday, October 21, 2010

  Actual Average Record
Temperature  
Mean Temperature 46 °F 39 °F  
Max Temperature 69 °F 53 °F 75 °F (2003)
Min Temperature 22 °F 25 °F 9 °F (1996)
Degree Days  
Heating Degree Days 19 26  
Month to date heating degree days 363 471  
Since 1 July heating degree days 1047 1092  
Cooling Degree Days 0 0  
Month to date cooling degree days 0 0  
Year to date cooling degree days 27 81  
Moisture  
Dew Point 23 °F    
Average Humidity 48    
Maximum Humidity 81    
Minimum Humidity 15    
Precipitation  
Precipitation 0.00 in 0.03 in 0.73 in (1974)
Month to date precipitation 0.38 0.57  
Year to date precipitation 13.96 11.45  
Sea Level Pressure  
Sea Level Pressure 29.99 in    
Wind  
Wind Speed 3 mph (SE)    
Max Wind Speed 8 mph    
Max Gust Speed 10 mph    
Visibility 10 miles    
Events      
T = Trace of Precipitation, MM = Missing Value Source: NWS Daily Summary

Daily Weather History Graph

Daily Weather History Graph

Search for Another Location

Airport or City:

Trip Planner

Search our weather history database for the weather conditions in past years. The results will help you decide how hot, cold, wet, or windy it might be!

Date:

Astronomy

Oct. 21, 2010 Rise Set
Actual Time 7:55 AM MDT 6:33 PM MDT
Civil Twilight 7:24 AM MDT 7:03 PM MDT
Nautical Twilight 6:49 AM MDT 7:38 PM MDT
Astronomical Twilight 6:15 AM MDT 8:12 PM MDT
Moon 5:35 PM MDT (10/21) 6:37 AM MDT (10/21)
Length of Visible Light 11h 39m
Length of Day
10h 38m
Waxing Gibbous, 98% of the Moon is Illuminated
Oct 21
Waxing Gibbous
Oct 22
Full
Oct 30
Last Quarter
Nov 5
New
Nov 13
First Quarter

Hourly Weather History & Observations

Time (MDT) Temp. Windchill Dew Point Humidity Pressure Visibility Wind Dir Wind Speed Gust Speed Precip Events Conditions
12:53 AM 30.0 °F 26.5 °F 21.0 °F 69% 30.08 in 10.0 mi SSE 3.5 mph - N/A   Clear
1:53 AM 30.0 °F - 21.0 °F 69% 30.05 in 10.0 mi Calm Calm - N/A   Clear
2:53 AM 28.0 °F - 21.0 °F 75% 30.04 in 10.0 mi Calm Calm - N/A   Clear
3:53 AM 27.0 °F 21.6 °F 19.9 °F 75% 30.02 in 10.0 mi SE 4.6 mph - N/A   Clear
4:53 AM 25.0 °F 20.7 °F 19.0 °F 78% 30.02 in 10.0 mi SSE 3.5 mph - N/A   Clear
5:53 AM 25.0 °F - 19.9 °F 81% 30.03 in 10.0 mi Calm Calm - N/A   Clear
6:53 AM 24.1 °F - 19.0 °F 81% 30.07 in 10.0 mi Calm Calm - N/A   Clear
7:53 AM 23.0 °F - 18.0 °F 81% 30.08 in 10.0 mi Calm Calm - N/A   Clear
8:53 AM 26.1 °F - 19.9 °F 78% 30.11 in 10.0 mi Calm Calm - N/A   Clear
9:53 AM 35.1 °F - 25.0 °F 67% 30.09 in 10.0 mi Calm Calm - N/A   Clear
10:53 AM 45.0 °F - 24.1 °F 44% 30.03 in 10.0 mi Calm Calm - N/A   Clear
11:53 AM 53.1 °F - 23.0 °F 31% 29.99 in 10.0 mi Calm Calm - N/A   Clear
12:53 PM 57.9 °F - 25.0 °F 28% 29.96 in 10.0 mi Calm Calm - N/A   Clear
1:53 PM 64.0 °F - 24.1 °F 22% 29.91 in 10.0 mi Calm Calm - N/A   Clear
2:53 PM 66.9 °F - 23.0 °F 19% 29.88 in 10.0 mi NNW 6.9 mph - N/A   Clear
3:53 PM 66.9 °F - 21.0 °F 17% 29.87 in 10.0 mi Variable 4.6 mph - N/A   Clear
4:53 PM 69.1 °F - 19.0 °F 15% 29.86 in 10.0 mi NNE 3.5 mph - N/A   Clear
5:53 PM 63.0 °F - 25.0 °F 24% 29.87 in 10.0 mi West 5.8 mph - N/A   Clear
6:53 PM 55.9 °F - 28.0 °F 34% 29.91 in 10.0 mi NNE 4.6 mph - N/A   Clear
7:53 PM 46.0 °F 43.1 °F 27.0 °F 47% 29.97 in 10.0 mi South 5.8 mph - N/A   Clear
8:53 PM 43.0 °F 38.8 °F 26.1 °F 51% 29.98 in 10.0 mi SSE 6.9 mph - N/A   Clear
9:53 PM 37.0 °F 32.4 °F 26.1 °F 65% 29.97 in 10.0 mi SE 5.8 mph - N/A   Clear
10:53 PM 37.0 °F - 25.0 °F 62% 29.94 in 10.0 mi Calm Calm - N/A   Clear
11:53 PM 34.0 °F 31.0 °F 25.0 °F 70% 29.92 in 10.0 mi SE 3.5 mph - N/A   Clear